Satellite-Ground Cal/Val Site Overpasses Predictions

Prediction of Satellite NPP Overpassing Cal/Val Site: Antarctic Dome C

Ground Cal/Val Site Location: Latitude: -75.10, Longitude: 123.35; Satellite-Ground Site NADIR distance within 100 km.

Table of predicted overpasses for the next 14.0 days since TLE Epoch: 9/13/2013
Interval Starting Time Ending Time Minimum Distance Time Minimum Distance (km)
1 09/15/2013 14:55:40 09/15/2013 14:56:08 09/15/2013 14:55:54 25.86
2 09/16/2013 14:36:57 09/16/2013 14:37:14 09/16/2013 14:37:05 81.17
3 09/17/2013 07:38:31 09/17/2013 07:38:59 09/17/2013 07:38:45 34.19
4 09/18/2013 07:19:47 09/18/2013 07:20:06 09/18/2013 07:19:57 75.72
5 09/20/2013 15:02:04 09/20/2013 15:02:27 09/20/2013 15:02:16 63.09
6 09/21/2013 14:43:14 09/21/2013 14:43:40 09/21/2013 14:43:27 46.17
7 09/22/2013 07:44:56 09/22/2013 07:45:17 09/22/2013 07:45:06 69.56
8 09/23/2013 07:26:04 09/23/2013 07:26:31 09/23/2013 07:26:18 38.33


NCC Satellite Cal/Val Overpasses Prediction Service
